This is the latest recevied weather packets stored in our database for station/object PD2BVG. If no packets are shown the sender has not sent any weather packets the latest 10 day(s).
| Time | Temp. | Humidity | Pressure | Rain* | Wind** | Luminosity | Snow |
|---|---|---|---|---|---|---|---|
| 1787409942 | 18.89° C | 70% | 1022.8 hPa | 0 mm | - | 315 W/m² | - |
| 1787409881 | 18.89° C | 70% | 1022.8 hPa | 0 mm | - | 589 W/m² | - |
| 1787409823 | 18.89° C | 70% | 1022.8 hPa | 0 mm | - | 582 W/m² | - |
| 1787409762 | 18.89° C | 70% | 1022.8 hPa | 0 mm | - | 172 W/m² | - |
| 1787409702 | 18.89° C | 70% | 1022.8 hPa | 0 mm | - | 594 W/m² | - |
| 1787409642 | 18.89° C | 70% | 1022.8 hPa | 0 mm | - | 598 W/m² | - |
| 1787409583 | 18.89° C | 70% | 1022.8 hPa | 0 mm | - | 160 W/m² | - |
| 1787409521 | 18.89° C | 70% | 1022.8 hPa | 0 mm | - | 121 W/m² | - |
| 1787409478 | 18.89° C | 69% | 1022.8 hPa | 0 mm | - | 127 W/m² | - |
| 1787409402 | 19.44° C | 70% | 1022.8 hPa | 0 mm | - | 645 W/m² | - |
| 1787409341 | 18.89° C | 70% | 1022.7 hPa | 0 mm | - | 577 W/m² | - |
| 1787409281 | 18.89° C | 70% | 1022.7 hPa | 0 mm | - | 577 W/m² | - |
| 1787409222 | 18.89° C | 70% | 1022.7 hPa | 0 mm | - | 631 W/m² | - |
| 1787409162 | 18.89° C | 69% | 1022.7 hPa | 0 mm | - | 531 W/m² | - |
| 1787409102 | 18.89° C | 69% | 1022.6 hPa | 0 mm | - | 568 W/m² | - |
| 1787409042 | 18.89° C | 69% | 1022.7 hPa | 0 mm | - | 489 W/m² | - |
| 1787408981 | 18.89° C | 69% | 1022.7 hPa | 0 mm | - | 361 W/m² | - |
| 1787408924 | 18.89° C | 69% | 1022.7 hPa | 0 mm | - | 361 W/m² | - |
| 1787408863 | 18.89° C | 67% | 1022.5 hPa | 0 mm | - | 598 W/m² | - |
| 1787408803 | 18.89° C | 68% | 1022.5 hPa | 0 mm | - | 614 W/m² | - |
| 1787408743 | 18.89° C | 68% | 1022.7 hPa | 0 mm | - | 587 W/m² | - |
| 1787408683 | 18.89° C | 68% | 1022.7 hPa | 0 mm | - | 561 W/m² | - |
| 1787408622 | 18.89° C | 67% | 1022.5 hPa | 0 mm | - | 575 W/m² | - |
| 1787408561 | 18.89° C | 66% | 1022.6 hPa | 0 mm | - | 410 W/m² | - |
| 1787408502 | 19.44° C | 66% | 1022.6 hPa | 0 mm | - | 605 W/m² | - |
* Rain latest hour (hover to see other rain measurements)
** Current wind speed in m/s (hover to see current wind gust speed)